Regional Weather Roundup
Issued by NWS Sterling, VA

Home | Current Version | Previous Version | Text Only | Print | Product List | Glossary Off
Versions: 1 2 3 4 5 6 7 8 9 10 11 12 13 14 15 16 17 18 19 20 21 22 23 24 25 26 27 28 29 30 31 32 33 34 35 36 37 38 39 40 41 42 43 44 45 46 47 48 49 50

000
ASUS41 KLWX 302110
RWRLWX

REGIONAL WEATHER ROUNDUP
NATIONAL WEATHER SERVICE BALTIMORE MD/WASHINGTON DC
500 PM EDT SAT AUG 30 2014

Note: "FAIR" indicates few or no clouds below 12,000 feet
with no significant weather and/or obstructions to visibility.
 TC=TEMPERATURE CELSIUS

 * =Non NWS site. Station does not report precipitation (e.g. rain,
    snow, etc.), thunder, or fog.

DCZ001-MDZ009-015-VAZ040>042-051-053>054-302200-
WASHINGTON METRO

CITY           SKY/WX    TMP DP  RH WIND       PRES   REMARKS
WASHINGTON NAT CLOUDY    85  69  58 S8        30.14F
DULLES         PTSUNNY   79  70  74 S7        30.14F
ANDREWS AFB    PTSUNNY   81  70  71 SE8       30.15S
QUANTICO       CLOUDY    82  72  71 SE7       30.13F
COLLEGE PARK*  CLOUDY    82  70  65 SE5       30.13F
LEESBURG*      CLOUDY    82  73  74 S8        30.14F
MANASSAS*      CLOUDY    82  73  74 SE6       30.13F
GAITHERSBURG*  CLOUDY    81  70  69 SE9       30.18F

$$

MDZ006>007-011-014-302200-
BALTIMORE METRO

CITY           SKY/WX    TMP DP  RH WIND       PRES   REMARKS
BWI AIRPORT    MOSUNNY   81  66  60 SE7       30.14F
MD SCIENCE CTR   N/A     81  66  60 MISG      30.14F
MARTIN STATE   PTSUNNY   81  70  69 SE9       30.16F
ANNAPOLIS      MOSUNNY   79  67  66 S9        30.15F
FORT MEADE*    PTSUNNY   79  68  69 SE7       30.16F

$$

MDZ012-015-019>023-302200-
MARYLAND EASTERN SHORE

CITY           SKY/WX    TMP DP  RH WIND       PRES   REMARKS
OCEAN CITY     SUNNY     78  66  66 SE8       30.19F
SALISBURY      MOSUNNY   84  66  54 S10       30.17S
BAY BRIDGE AP*   N/A     81  63  54 S8        30.15F
CAMBRIDGE*     PTSUNNY   81  64  57 S8        30.16S
EASTON*        MOSUNNY   86  68  54 S9        30.19F

$$

MDZ017>025-302200-
SOUTHERN MARYLAND

CITY           SKY/WX    TMP DP  RH WIND       PRES   REMARKS
PATUXENT RIVER MOSUNNY   81  67  62 SE10      30.15F
ST INIGOES     SUNNY     82  67  60 SE9       30.14F
LEONARDTOWN*   MOSUNNY   82  66  57 SE7       30.16F

$$

MDZ003>005-302200-
NORTH CENTRAL MARYLAND

CITY           SKY/WX    TMP DP  RH WIND       PRES   REMARKS
FREDERICK*     PTSUNNY   82  72  69 S7        30.16F
HAGERSTOWN APT PTSUNNY   81  68  64 SE8       30.13F
WESTMINSTER*   CLOUDY    81  70  69 S10       30.16S

$$

MDZ501>502-302200-
WESTERN MARYLAND

CITY           SKY/WX    TMP DP  RH WIND       PRES   REMARKS
OAKLAND*       MOSUNNY   81  55  41 W6        30.19F
CUMBERLAND*    MOSUNNY   90  63  40 SE5       30.10S HX  90

$$

VAZ025>031-302200-
SHENANDOAH VALLEY

CITY           SKY/WX    TMP DP  RH WIND       PRES   REMARKS
WINCHESTER*    SUNNY     82  70  65 SE13G18   30.11F
STAUNTON*      SUNNY     85  68  56 S12G17    30.14F

$$

WVZ021-048>050-054>055-302200-
EASTERN WEST VIRGINIA PANHANDLE

CITY           SKY/WX    TMP DP  RH WIND       PRES   REMARKS
MARTINSBURG    MOSUNNY   83  67  58 SE12      30.12F
PETERSBURG*    NOT AVBL

$$

VAZ036>039-050-302200-
CENTRAL FOOTHILLS

CITY           SKY/WX    TMP DP  RH WIND       PRES   REMARKS
CHARLOTTESVILL MOSUNNY   82  71  69 S8        30.14F
ORANGE*        PTSUNNY   82  70  65 E6        30.15F

$$

VAZ055>057-302200-
NORTH AND CENTRAL PIEDMONT

CITY           SKY/WX    TMP DP  RH WIND       PRES   REMARKS
FREDERICKSBRG* MOSUNNY   87  71  59 S6        30.12F HX  92
STAFFORD*      PTSUNNY   83  71  67 S3        30.17F

$$

NCZ024-NYZ072-PAZ021-071-VAZ022-071-302200-
OTHER REGIONAL OBSERVATIONS

CITY           SKY/WX    TMP DP  RH WIND       PRES   REMARKS
NEW YORK CITY  CLOUDY    75  62  64 VRB7      30.20F
PHILADELPHIA   PTSUNNY   79  61  53 S9        30.17F
PITTSBURGH     PTSUNNY   86  65  49 SW12      30.05F
ROANOKE        MOSUNNY   86  67  52 S15       30.15F
RICHMOND       PTSUNNY   89  71  55 S7        30.13F HX  95
RALEIGH        MOSUNNY   88  70  55 SE7       30.14F HX  93

$$

ANZ530>537-302200-
MARINE OBSERVATIONS

STATION/POSITION TIME  TEMP    WIND        PRES
                       AIR SEA DIR/SP/G
                 (UTC) (F)     (DEG/KT/KT) (MB)
THOMAS PT LIGHT  2100   78 78  180/ 13/ 14 1021.7F
BALT KEY BRIDGE  2100   85     130/ 12/ 13 1020.5F
COVE POINT       2100   78     180/ 16/ 17 1021.0F
LEWISETTA        2100   80 79  150/ 11/ 13 1020.6S
SOLOMONS ISLAND  2100      79                N/A
PINEY POINT      2100          160/ 15/ 16   N/A

$$




USA.gov is the U.S. government's official web portal to all federal, state and local government web resources and services.